{"data":{"norad_id":62531,"intl_designator":"2025-004W","name":"STARLINK-32785","alt_names":[],"object_type":"PAYLOAD","status":"ACTIVE","operator":null,"country":"US","launch_date":"2025-01-08","launch_site_code":"AFETR","launch_vehicle":null,"mission":null,"orbit_class":"UNKNOWN","rcs_meters":null,"size_class":null,"mass_kg":null,"dimensions":null,"purposes":["comms"],"wikipedia_slug":null,"has_3d_model":false,"image_url":null,"decayed_at":null,"tle_current":{"epoch":"2026-09-21T04:17:22.419744Z","epoch_age_seconds":112728,"freshness":"FRESH","line1":"1 62531U 25004W   26264.17873171  .00009720  00000+0  36219-3 0  9994","line2":"2 62531  42.9997 196.0664 0000766 339.9487  20.1334 15.27587671 96358","mean_motion":15.27587671,"eccentricity":7.66e-5,"inclination_deg":42.9997,"raan_deg":196.0664,"arg_perigee_deg":339.9487,"mean_anomaly_deg":20.1334,"bstar":0.00036219,"rev_number":9635,"period_min":94.266275339689,"perigee_km":482.50056130667,"apogee_km":483.55169149763,"semimajor_km":6861.1631264021,"source":"CELESTRAK","updated_at":"2026-09-22T09:00:49.625668Z"}}}